Location: Estes Park
(40.3770°N, 105.5210°W)
Time: 15:47:36
(UTC-07:00)

Tiangong 2 - Pass Details

Date: 08 October 2017
Orbit: 386 x 390 km, 42.8° (Epoch: 14 December)

Event Time Altitude Azimuth Distance (km) Brightness Sun altitude
Exits shadow 05:22:38 18° 165° (SSE) 1,025 3.2 -20.4°
Maximum altitude 05:23:19 19° 147° (SSE) 983 3.3 -20.3°
Drops below altitude 10° 05:25:43 10° 98° (E) 1,418 5.0 -19.8°
Sets 05:28:09 0° 80° (E) 2,278 6.7 -19.4°
